TimePDT,TemperatureF,Dew PointF,Humidity,Sea Level PressureIn,VisibilityMPH,Wind Direction,Wind SpeedMPH,Gust SpeedMPH,PrecipitationIn,Events,Conditions,WindDirDegrees,DateUTC
12:53 AM,50.0,48.0,93,30.11,10.0,Calm,Calm,-,N/A,,Overcast,0,2013-06-12 07:53:00
1:53 AM,51.1,48.0,89,30.11,10.0,Calm,Calm,-,0.00,Rain,Light Rain,0,2013-06-12 08:53:00
2:53 AM,46.9,46.0,97,30.11,10.0,Calm,Calm,-,0.00,,Mostly Cloudy,0,2013-06-12 09:53:00
3:53 AM,46.0,45.0,96,30.12,10.0,Calm,Calm,-,N/A,,Mostly Cloudy,0,2013-06-12 10:53:00
4:53 AM,48.9,46.9,93,30.12,10.0,Calm,Calm,-,N/A,,Overcast,0,2013-06-12 11:53:00
5:53 AM,50.0,48.9,96,30.12,10.0,Calm,Calm,-,N/A,,Overcast,0,2013-06-12 12:53:00
6:53 AM,51.1,48.9,92,30.13,10.0,Calm,Calm,-,N/A,,Overcast,0,2013-06-12 13:53:00
7:53 AM,51.1,50.0,96,30.14,10.0,Calm,Calm,-,0.00,,Overcast,0,2013-06-12 14:53:00
8:53 AM,53.1,48.9,86,30.14,10.0,Calm,Calm,-,N/A,,Overcast,0,2013-06-12 15:53:00
9:14 AM,53.6,48.2,82,30.14,10.0,ESE,4.6,-,N/A,,Overcast,110,2013-06-12 16:14:00
9:53 AM,55.0,50.0,83,30.15,10.0,Variable,3.5,-,N/A,,Overcast,0,2013-06-12 16:53:00
10:53 AM,57.9,48.9,72,30.15,10.0,ESE,4.6,-,N/A,,Overcast,120,2013-06-12 17:53:00
11:53 AM,61.0,50.0,67,30.15,10.0,Variable,5.8,-,N/A,,Mostly Cloudy,0,2013-06-12 18:53:00
12:53 PM,61.0,48.0,62,30.15,10.0,Variable,5.8,-,N/A,,Clear,0,2013-06-12 19:53:00
1:53 PM,62.1,46.9,58,30.15,10.0,Variable,4.6,-,N/A,,Clear,0,2013-06-12 20:53:00
2:53 PM,62.1,48.9,62,30.14,10.0,ESE,4.6,-,N/A,,Clear,110,2013-06-12 21:53:00
3:53 PM,59.0,46.9,64,30.14,10.0,East,3.5,-,N/A,,Unknown,100,2013-06-12 22:53:00
4:53 PM,61.0,50.0,67,30.14,10.0,SSW,5.8,-,N/A,,Clear,200,2013-06-12 23:53:00
5:53 PM,59.0,48.9,69,30.14,10.0,SSW,4.6,-,N/A,,Clear,210,2013-06-13 00:53:00
6:53 PM,61.0,48.0,62,30.13,10.0,Calm,Calm,-,N/A,,Clear,0,2013-06-13 01:53:00
7:53 PM,59.0,46.9,64,30.14,10.0,Calm,Calm,-,N/A,,Scattered Clouds,0,2013-06-13 02:53:00
8:53 PM,52.0,46.9,83,30.13,10.0,Calm,Calm,-,N/A,,Clear,0,2013-06-13 03:53:00
9:53 PM,48.0,46.9,96,30.14,10.0,Calm,Calm,-,N/A,,Partly Cloudy,0,2013-06-13 04:53:00
10:53 PM,46.9,46.0,97,30.15,10.0,Calm,Calm,-,N/A,,Scattered Clouds,0,2013-06-13 05:53:00
11:53 PM,48.9,48.0,97,30.15,10.0,Calm,Calm,-,N/A,,Overcast,0,2013-06-13 06:53:00